Погода в Ачане

Россия / Хабаровский край     49°53′26″N   136°36′43″E
темп.,
°C
ветер,
м/с
пор.,
м/с
влажн.,
%
обл.,
%
осадки,
мм/ч
давл.,
гПа
погр.,
м
17 мая, пн
пн1701:00+8св11744 0.0 100113
04:00+7св11783 0.0 100110
07:00+10ссз11685 0.0 100297
10:00+16ю22500 0.0 1001689
13:00+18юз34434 0.0 10011011
16:00+22юз58348 0.0 9991999
19:00+20ююз4113991 0.0 999609
22:00+14юз365971 0.0 1000106
18 мая, вт
вт1801:00+12ююз227098 0.0 100117
04:00+11ю256722 0.0 1001113
07:00+12ююз31062100 0.0 1000348
10:00+17юз5953100 0.0 1000673
13:00+21юз61144100 0.0 9991245
16:00+24юз71637100 0.0 9972405
19:00+22юз384610 0.1 997262
22:00+18з3765100 0.9 999197
19 мая, ср
ср1901:00+12св249793 0.8 1001111
04:00+13св4990100 1.1 1002417
07:00+9в3595100 3.8 1004221
10:00+12вюв1181100 5.1 1004377
13:00+15зюз247461 0.3 1004789
16:00+18юз465924 0.3 1004977
19:00+18ю126059 0.1 1004214
22:00+13св228113 0.1 100731
20 мая, чт
чт2001:00+11св37863 0.0 1008136
04:00+10св118973 0.0 100713
07:00+12ююз11797 0.0 1005128
10:00+17ююз4962100 0.0 1002696
13:00+21зюз6135890 0.0 10011464
16:00+24юз71249100 0.0 10001644
19:00+23юз4105514 0.0 1000678
22:00+18зюз3977100 0.1 1002193
21 мая, пт
пт2101:00+15зюз2289100 0.3 100327
04:00+13всв41068100 0.3 1005305
07:00+12св49590 0.0 1007313
10:00+18всв44400 0.0 1008704
13:00+21всв33360 0.0 10071049
16:00+22в33336 0.0 10061205
19:00+20всв3639100 0.0 1007563
22:00+14ссв395478 0.0 1008180